Regional Weather Roundup
Issued by NWS

Home | Current Version | Previous Version | Text Only | Print | Product List | Glossary On
Versions: 1 2 3 4 5 6 7 8 9 10 11 12 13 14 15 16 17 18 19 20 21 22 23 24 25 26 27 28 29 30 31 32 33 34 35 36 37 38 39 40 41 42 43 44 45 46 47 48 49 50
205
ASUS44 KLIX 281505
RWRLA
LOUISIANA WEATHER ROUNDUP
NATIONAL WEATHER SERVICE NEW ORLEANS LA
1000 AM CDT THU AUG 28 2014

NOTE: "FAIR" INDICATES FEW OR NO CLOUDS BELOW 12,000 FEET WITH NO
      SIGNIFICANT WEATHER AND/OR OBSTRUCTIONS TO VISIBILITY.
      SKY/WX - SKY CONDITION AND SIGNIFICANT WEATHER.
      TMP - AIR TEMPERATURE.    DP   - DEWPOINT TEMPERATURE.
      RH  - RELATIVE HUMIDITY.  PRES - PRESSURE.
      HX  - HEAT INDEX.         WCI  - WIND CHILL INDEX.

*  THESE STATIONS ARE NOT NWS OR FAA STATIONS AND ARE NOT UNDER
   NWS QUALITY CONTROL.

LAZ040-048-061>063-065-066-069-281600-
SOUTHEAST LOUISIANA

CITY           SKY/WX    TMP DP  RH WIND       PRES   REMARKS
N.O. AUDUBON     N/A     87  76  69 MISG        N/A  HX  97
N.O. INTL ARPT PTSUNNY   87  75  67 E7        30.00R HX  96
N.O. LAKEFRONT MOSUNNY   85  77  77 E8        30.00R HX  95
N.O. DOWNTOWN* PTSUNNY   84  73  70 CALM      30.00S
SLIDELL        MOSUNNY   84  75  74 E6        30.00R
BATON ROUGE    PTSUNNY   84  75  74 E5        30.00R
BOOTHVILLE     MOSUNNY   87  74  64 E8        30.00R HX  95
BELLE CHASSE   PTSUNNY   86  75  69 E8        29.99R HX  95
BOGALUSA*      PTSUNNY   83  74  75 N3        30.03R
GALLIANO*      NOT AVBL
NEW ROADS*     FAIR      85  76  75 E6        30.00S
GONZALES*      FAIR      84  78  81 E3        29.99S HX  95
HAMMOND*       MOSUNNY   86  72  62 SE3       30.02R
HOUMA*         MOSUNNY   84  73  70 E8        29.99R
PORT FOURCHON* SUNNY     86  73  66 E10       30.00R

$$

LAZ041-044-053-054-281600-
SOUTHWEST LOUISIANA

CITY           SKY/WX    TMP DP  RH WIND       PRES   REMARKS
LAKE CHARLES   PTSUNNY   84  77  79 SE13      29.98R
LAFAYETTE      MOSUNNY   84  77  79 VRB6      29.99R
PATTERSON      PTSUNNY   84  79  84 E7        30.01S HX  96
SALT POINT       N/A     84  79  85 VRB3      29.98R HX  96
NEW IBERIA     PTSUNNY   85  77  77 SE10      29.99R HX  95
CHENAULT AIRPK PTSUNNY   84  75  74 E8        29.99R

$$

LAZ027-028-281600-
CENTRAL LOUISIANA

CITY           SKY/WX    TMP DP  RH WIND       PRES   REMARKS
FORT POLK      SUNNY     84  73  69 SE7       29.99R
ALEXANDRIA INT SUNNY     84  74  71 SE8       29.98R
ALEXANDRIA     SUNNY     85  75  72 SE7       30.00R

$$

LAZ001-002-281600-
NORTHWEST LOUISIANA

CITY           SKY/WX    TMP DP  RH WIND       PRES   REMARKS
SHREVEPORT     MOSUNNY   87  72  60 CALM      29.98S
BARKSDALE AFB  SUNNY     85  71  62 E3        29.99S
DTN SHREVEPORT MOSUNNY   85  72  65 VRB3      29.99R

$$

LAZ014-016-281600-
NORTHEAST LOUISIANA

CITY           SKY/WX    TMP DP  RH WIND       PRES   REMARKS
MONROE         SUNNY     84  73  69 CALM      30.01R
TALLULAH       SUNNY     85  73  67 CALM      30.01S

$$




USA.gov is the U.S. government's official web portal to all federal, state and local government web resources and services.